Weather History for Salon, France

Change the Weather History Date:

Thursday, September 19, 2013

  Actual Average (LFML) Record (LFML)
Temperature  
Mean Temperature 66 °F -  
Max Temperature 71 °F 75 °F 84 °F (2014)
Min Temperature 60 °F 58 °F 50 °F (2001)
Growing Degree Days 16 (Base 50)    
Moisture  
Dew Point 49 °F    
Average Humidity 54    
Maximum Humidity 88    
Minimum Humidity 35    
Precipitation  
Precipitation 0.00 in - - ()
Sea Level Pressure  
Sea Level Pressure 29.83 in    
Wind  
Wind Speed 15 mph ()    
Max Wind Speed 36 mph    
Max Gust Speed 51 mph    
Visibility 6.2 miles    
Events      
Averages and records for this station are not official NWS values.
T = Trace of Precipitation, MM = Missing Value Source: Averaged Metar Reports

Daily Weather History Graph

Daily Weather History Graph

Search for Another Location

Airport:

Trip Planner

Search our weather history database for the weather conditions in past years. The results will help you decide how hot, cold, wet, or windy it might be!

Date:

Astronomy

Sep. 19, 2013 Rise Set
Actual Time 7:23 AM CEST 7:42 PM CEST
Civil Twilight 6:54 AM CEST 8:11 PM CEST
Nautical Twilight 6:20 AM CEST 8:44 PM CEST
Astronomical Twilight 5:46 AM CEST 9:19 PM CEST
Moon 7:29 PM CEST (9/19) 7:16 AM CEST (9/19)
Length of Visible Light 13h 16m
Length of Day
12h 19m
Full, 100% of the Moon is Illuminated
Sep 19
Full
Sep 19
Full
Sep 27
Last Quarter
Oct 5
New
Oct 12
First Quarter

Hourly Weather History & Observations

Time (CEST) Temp. Dew Point Humidity Pressure Visibility Wind Dir Wind Speed Gust Speed Precip Events Conditions
12:00 AM 66.2 °F 57.2 °F 73% 29.80 in 6.2 mi West 9.2 mph - N/A   Unknown
12:30 AM 66.2 °F 59.0 °F 78% 29.80 in 6.2 mi West 9.2 mph - N/A   Unknown
1:00 AM 66.2 °F 59.0 °F 78% 29.80 in 6.2 mi WNW 6.9 mph - N/A   Unknown
1:30 AM 64.4 °F 57.2 °F 77% 29.83 in 6.2 mi NW 4.6 mph - N/A   Unknown
2:00 AM 64.4 °F 57.2 °F 77% 29.80 in 6.2 mi Variable 3.5 mph - N/A   Unknown
2:30 AM 60.8 °F 57.2 °F 88% 29.80 in 6.2 mi Variable 2.3 mph - N/A   Unknown
3:00 AM 60.8 °F 53.6 °F 77% 29.80 in 6.2 mi Calm Calm - N/A   Unknown
3:30 AM 64.4 °F 53.6 °F 68% 29.80 in 6.2 mi NNW 15.0 mph - N/A   Unknown
4:00 AM 64.4 °F 51.8 °F 64% 29.80 in 6.2 mi NW 11.5 mph - N/A   Unknown
4:30 AM 62.6 °F 50.0 °F 63% 29.80 in 6.2 mi NW 8.1 mph - N/A   Unknown
5:00 AM 62.6 °F 50.0 °F 63% 29.80 in 6.2 mi NW 8.1 mph - N/A   Unknown
5:30 AM 62.6 °F 50.0 °F 63% 29.80 in 6.2 mi NW 10.4 mph - N/A   Unknown
6:00 AM 62.6 °F 50.0 °F 63% 29.80 in 6.2 mi NNW 11.5 mph - N/A   Unknown
6:30 AM 62.6 °F 50.0 °F 63% 29.80 in 6.2 mi NNW 12.7 mph 25.3 mph N/A   Unknown
7:00 AM 62.6 °F 50.0 °F 63% 29.80 in 6.2 mi NNW 16.1 mph - N/A   Unknown
7:30 AM 62.6 °F 50.0 °F 63% 29.83 in 6.2 mi NNW 17.3 mph - N/A   Unknown
8:00 AM 62.6 °F 50.0 °F 63% 29.83 in 6.2 mi NNW 20.7 mph 32.2 mph N/A   Unknown
8:30 AM 64.4 °F 50.0 °F 59% 29.83 in 6.2 mi NW 18.4 mph 38.0 mph N/A   Unknown
9:00 AM 64.4 °F 50.0 °F 59% 29.83 in 6.2 mi NW 21.9 mph 38.0 mph N/A   Unknown
9:30 AM 66.2 °F 50.0 °F 56% 29.83 in 6.2 mi NNW 24.2 mph 39.1 mph N/A   Unknown
10:00 AM 66.2 °F 50.0 °F 56% 29.83 in 6.2 mi NNW 25.3 mph 44.9 mph N/A   Unknown
10:30 AM 68.0 °F 50.0 °F 52% 29.83 in 6.2 mi NNW 24.2 mph 40.3 mph N/A   Unknown
11:00 AM 68.0 °F 46.4 °F 46% 29.86 in 6.2 mi NNW 27.6 mph 47.2 mph N/A   Unknown
11:30 AM 68.0 °F 46.4 °F 46% 29.86 in 6.2 mi NNW 24.2 mph 39.1 mph N/A   Unknown
12:00 PM 69.8 °F 46.4 °F 43% 29.86 in 6.2 mi NNW 32.2 mph - N/A   Unknown
12:30 PM 69.8 °F 46.4 °F 43% 29.83 in 6.2 mi NNW 35.7 mph 50.6 mph N/A   Unknown
1:00 PM 71.6 °F 48.2 °F 43% 29.83 in 6.2 mi NNW 26.5 mph - N/A   Unknown
1:30 PM 71.6 °F 46.4 °F 41% 29.83 in 6.2 mi North 29.9 mph 44.9 mph N/A   Unknown
2:00 PM 71.6 °F 46.4 °F 41% 29.83 in 6.2 mi NNW 32.2 mph 44.9 mph N/A   Unknown
2:30 PM 71.6 °F 46.4 °F 41% 29.83 in 6.2 mi NNW 28.8 mph 43.7 mph N/A   Unknown
3:00 PM 71.6 °F 44.6 °F 38% 29.83 in 6.2 mi NNW 31.1 mph 44.9 mph N/A   Unknown
3:30 PM 71.6 °F 44.6 °F 38% 29.83 in 6.2 mi NNW 29.9 mph 49.5 mph N/A   Unknown
4:00 PM 71.6 °F 44.6 °F 38% 29.83 in 6.2 mi NNW 31.1 mph 42.6 mph N/A   Unknown
4:30 PM 71.6 °F 44.6 °F 38% 29.83 in 6.2 mi NNW 33.4 mph 48.3 mph N/A   Unknown
5:00 PM 71.6 °F 42.8 °F 35% 29.83 in 6.2 mi NNW 28.8 mph 42.6 mph N/A   Unknown
5:30 PM 71.6 °F 44.6 °F 38% 29.83 in 6.2 mi NNW 24.2 mph 38.0 mph N/A   Unknown
6:00 PM 69.8 °F 44.6 °F 40% 29.83 in 6.2 mi NNW 27.6 mph 40.3 mph N/A   Unknown
6:30 PM 69.8 °F 44.6 °F 40% 29.83 in 6.2 mi NNW 25.3 mph - N/A   Unknown
7:00 PM 68.0 °F 44.6 °F 43% 29.83 in 6.2 mi NNW 25.3 mph - N/A   Unknown
7:30 PM 66.2 °F 44.6 °F 46% 29.83 in 6.2 mi NNW 27.6 mph 40.3 mph N/A   Unknown
8:00 PM 66.2 °F 44.6 °F 46% 29.83 in 6.2 mi NNW 26.5 mph 39.1 mph N/A   Unknown
8:30 PM 66.2 °F 44.6 °F 46% 29.86 in 6.2 mi NNW 18.4 mph - N/A   Unknown
9:00 PM 64.4 °F 44.6 °F 49% 29.86 in 6.2 mi NNW 19.6 mph 31.1 mph N/A   Unknown
9:30 PM 64.4 °F 44.6 °F 49% 29.89 in 6.2 mi NNW 19.6 mph - N/A   Unknown
10:00 PM 64.4 °F 44.6 °F 49% 29.89 in 6.2 mi NW 16.1 mph - N/A   Unknown
10:30 PM 64.4 °F 44.6 °F 49% 29.89 in 6.2 mi NW 16.1 mph - N/A   Unknown
11:00 PM 64.4 °F 44.6 °F 49% 29.89 in 6.2 mi NNW 24.2 mph - N/A   Unknown
11:30 PM 64.4 °F 44.6 °F 49% 29.89 in 6.2 mi NNW 19.6 mph - N/A   Unknown